Location: Oroua River
(40.4333°S, 175.4333°E)
Time: 14:30:33
(UTC+00:00)

Meteor 1-28 Rocket - Pass Details

Date: 03 February 2023
Orbit: 493 x 511 km, 97.4° (Epoch: 22 March)

Event Time Altitude Azimuth Distance (km) Brightness Sun altitude
Rises 15:55:14 0° 177° (S) 2,623 7.4 -16.1°
Reaches altitude 10° 15:57:26 10° 185° (S) 1,728 6.3 -15.8°
Maximum altitude 16:00:53 36° 253° (WSW) 808 3.9 -15.3°
Enters shadow 16:02:02 28° 292° (WNW) 957 4.0 -15.1°
